[[{"header":{"parameterUnit":"m.s-1","parameterCategory":1,"la1":30.2991,"la2":30.254,"lo1":-89.0895,"lo2":-89.0444,"dy":0.0017,"dx":0.0017,"nx":28,"ny":28,"refTime":"2023-10-29T21:00:00:Z","depth":0,"parameterNumber":2,"parameterNumberName":"U-component_of_WINDS"},"data":[0,0,0,0,0,0,0,0,0,0,0,0,0,0,0,0,0,0,0,0,0,0,0,0,0,0,0,0,0,0,0,0,0,0,0,0,0,0,0,0,0,0,0,0,0,0,0,0,0,0,0,0,0,0,0,0,0,0,0.9302,0.9301,0,0.929,0.929,0.929,0.9309,0.931,0.9311,0.9311,0.93,0.9299,0.9298,0,0,0,0,0,0,0,0,0,0,0,0,0,0.9342,0.9342,0.9302,0.9301,0.9301,0.929,0.929,0.929,0.9309,0.931,0.9311,0.9312,0.93,0.9299,0.9298,0,0,0,0,0,0,0,0,0,0,0,0,0,0.9327,0.9341,0.9302,0.931,0.931,0.929,0.929,0.929,0.9309,0.931,0.9311,0.9312,0.93,0.9299,0.9298,0.9269,0,0,0.9293,0.9293,0,0,0,0,0,0,0,0,0.9328,0.9326,0.9309,0.9309,0.931,0.9302,0.93,0.9283,0.9309,0.931,0.9311,0.9313,0.93,0.9299,0.9294,0.9269,0.9268,0.9293,0.9293,0.9292,0.9292,0,0,0,0,0,0,0,0.9329,0.9326,0.9297,0.9308,0.9309,0.9315,0.9314,0.9297,0.9299,0.931,0.9311,0.9309,0.93,0.9295,0.9294,0.9268,0.9293,0.9292,0.9291,0.9291,0.9221,0.922,0,0,0,0,0,0,0.9329,0.9327,0.9297,0.9297,0.9322,0.9313,0.9312,0.9304,0.9299,0.93,0.9309,0.931,0.9297,0.9296,0.9294,0.9261,0.9292,0.9291,0.929,0.9222,0.9221,0.922,0,0,0,0,0,0,0.933,0.9326,0.9298,0.9312,0.9309,0.9311,0.9302,0.9303,0.9298,0.9299,0.9299,0.9303,0.9298,0.9296,0.9276,0.9261,0.929,0.9289,0.9223,0.9222,0.922,0.9195,0,0,0,0,0,0,0.9331,0.9326,0.9315,0.9312,0.9308,0.9279,0.9301,0.9302,0.9296,0.9298,0.9294,0.9294,0.9299,0.9278,0.9274,0.926,0.9288,0.9225,0.9223,0.9221,0.9197,0.9193,0.9189,0,0,0,0,0,0.9332,0.9307,0.9314,0.931,0.9294,0.9278,0.9276,0.9282,0.9294,0.9283,0.9284,0.9294,0.9264,0.9275,0.9272,0.9256,0.9226,0.9223,0.9221,0.9199,0.9194,0.9189,0,0,0,0,0,0,0.9307,0.9307,0.9314,0.9288,0.9283,0.9281,0.9267,0.9276,0.9267,0.927,0.9278,0.9277,0.9256,0.9254,0.9268,0.923,0.9247,0.9244,0.9231,0.9226,0.9222,0.9222,0.9286,0,0,0,0,0,0.9299,0.9286,0.9287,0.9263,0.9261,0.9265,0.9258,0.9263,0.9259,0.9257,0.9256,0.9251,0.9241,0.9234,0.9224,0.9198,0.9198,0.9186,0.9182,0.9179,0.9175,0.9163,0.9158,0.9212,0.9212,0.9213,0,0,0.9281,0.9279,0.927,0.9258,0.9255,0.9242,0.9262,0.9247,0.9238,0.9254,0.9235,0.9235,0.9231,0.9208,0.9198,0.9206,0.9161,0.9176,0.9173,0.9171,0.916,0.9155,0.915,0.9211,0.9211,0.9211,0,0,0.9241,0.9239,0.9219,0.9217,0.9212,0.9216,0.9212,0.921,0.921,0.9192,0.9204,0.9194,0.9175,0.9172,0.9168,0.9132,0.9141,0.9129,0.9107,0.9095,0.9091,0.9087,0.9074,0.9069,0.9126,0.9126,0.9126,0,0.9219,0.92,0.9209,0.9193,0.9188,0.9204,0.9185,0.9182,0.9175,0.9171,0.9181,0.916,0.9158,0.9136,0.9127,0.9123,0.9119,0.9128,0.9091,0.9087,0.9083,0.9071,0.9067,0.9124,0.9124,0.9125,0.9125,0,0.9174,0.916,0.9146,0.9139,0.9133,0.9116,0.9123,0.9116,0.9123,0.9126,0.9108,0.9107,0.9098,0.9094,0.91,0.9072,0.9078,0.9089,0.9106,0.9077,0.9065,0.9061,0.9122,0.9123,0.9123,0.9123,0,0,0.9114,0.9116,0.911,0.9108,0.9106,0.9097,0.9082,0.9074,0.9068,0.9064,0.9052,0.9037,0.9049,0.9044,0.9051,0.904,0.9013,0.9053,0.9053,0.9045,0.8984,0.8975,0.8969,0.902,0.9019,0.9018,0.8984,0,0.9075,0.9049,0.9058,0.9032,0.9021,0.9037,0.9025,0.9023,0.9026,0.9018,0.9021,0.9011,0.9026,0.9024,0.9015,0.9018,0.9,0.9021,0.9009,0.9008,0.9008,0.8963,0.8953,0.892,0.898,0.8979,0.8979,0,0.9025,0.902,0.8993,0.8995,0.8991,0.8979,0.8974,0.8966,0.8965,0.8968,0.8965,0.8975,0.8962,0.898,0.8963,0.8976,0.8973,0.8974,0.8973,0.8971,0.899,0.8959,0.891,0.8905,0.8972,0.8972,0.8973,0,0.8985,0.8971,0.8954,0.8952,0.8954,0.8946,0.8946,0.8947,0.8942,0.8938,0.8936,0.893,0.8927,0.8923,0.8932,0.8944,0.8913,0.8932,0.8916,0.8916,0.8907,0.8907,0.8856,0.8906,0.8906,0.8907,0.8907,0,0.8939,0.8922,0.8936,0.8925,0.8907,0.8919,0.89,0.8903,0.8904,0.8895,0.8909,0.89,0.8913,0.8905,0.8912,0.8897,0.8896,0.8899,0.89,0.8897,0.8896,0.8893,0.8895,0.8905,0.8906,0.8906,0.8906,0,0.889,0.8899,0.8881,0.8886,0.8887,0.8873,0.8878,0.8868,0.8874,0.8862,0.886,0.8869,0.8861,0.887,0.8863,0.8868,0.8848,0.8853,0.8848,0.8849,0.8832,0.8833,0.8776,0.8769,0.8825,0.8825,0.8824,0,0.8859,0.8847,0.8851,0.8846,0.8846,0.8838,0.8834,0.8847,0.8842,0.8842,0.8833,0.8827,0.8823,0.881,0.8816,0.8812,0.8817,0.8797,0.8816,0.8813,0.8816,0.8816,0.8816,0.8793,0.8792,0.8791,0.8791,0,0.8805,0.881,0.8804,0.88,0.8796,0.8793,0.8792,0.8787,0.88,0.8795,0.8788,0.8785,0.8779,0.8773,0.8771,0.8772,0.8784,0.8786,0.8782,0.8777,0.8774,0.8775,0.8836,0.8786,0.8787,0.8787,0.8787,0.8788,0.8763,0.8754,0.8756,0.8749,0.875,0.8749,0.8741,0.8747,0.8741,0.8738,0.8746,0.8737,0.874,0.8738,0.8739,0.8733,0.8741,0.8735,0.8733,0.8731,0.8729,0.8776,0.8732,0.8733,0.8733,0.8733,0.8733,0,0.8709,0.8712,0.8706,0.8705,0.87,0.8713,0.8713,0.8709,0.8701,0.8702,0.8699,0.8692,0.8687,0.8694,0.8691,0.8685,0.869,0.8683,0.8683,0.8683,0.8721,0.8725,0.8679,0.8679,0.8679,0.8679,0.8679,0.8679,0.868,0.8664,0.8671,0.8657,0.8661,0.8652,0.8651,0.8651,0.8653,0.8645,0.8641,0.8646,0.865,0.8648,0.8645,0.8647,0.8645,0.8636,0.864,0.8675,0.8681,0.8686,0.8689,0.8636,0.8636,0.8603,0.8603,0.8602]},{"header":{"parameterUnit":"m.s-1","parameterCategory":1,"la1":30.2991,"la2":30.254,"lo1":-89.0895,"lo2":-89.0444,"dy":0.0017,"dx":0.0017,"nx":28,"ny":28,"refTime":"2023-10-29T21:00:00:Z","depth":0,"parameterNumber":3,"parameterNumberName":"V-component_of_WINDS"},"data":[0,0,0,0,0,0,0,0,0,0,0,0,0,0,0,0,0,0,0,0,0,0,0,0,0,0,0,0,0,0,0,0,0,0,0,0,0,0,0,0,0,0,0,0,0,0,0,0,0,0,0,0,0,0,0,0,0,0,-4.3714,-4.3713,0,-4.3657,-4.3657,-4.3656,-4.364,-4.364,-4.364,-4.3641,-4.3575,-4.3573,-4.3571,0,0,0,0,0,0,0,0,0,0,0,0,0,-4.3804,-4.3802,-4.3714,-4.3713,-4.3713,-4.3658,-4.3657,-4.3656,-4.364,-4.364,-4.364,-4.3641,-4.3575,-4.3573,-4.357,0,0,0,0,0,0,0,0,0,0,0,0,0,-4.3758,-4.3802,-4.3714,-4.3698,-4.3696,-4.3658,-4.3657,-4.3656,-4.364,-4.364,-4.364,-4.3641,-4.3576,-4.3573,-4.357,-4.3541,0,0,-4.3561,-4.3559,0,0,0,0,0,0,0,0,-4.376,-4.3754,-4.3701,-4.3699,-4.3697,-4.3656,-4.3664,-4.3617,-4.3639,-4.3661,-4.3641,-4.3641,-4.3601,-4.3596,-4.3584,-4.3538,-4.3535,-4.356,-4.3558,-4.3557,-4.3556,0,0,0,0,0,0,0,-4.3763,-4.3757,-4.3691,-4.37,-4.3698,-4.3692,-4.3686,-4.3655,-4.3628,-4.3659,-4.3658,-4.3652,-4.36,-4.3587,-4.3582,-4.3534,-4.356,-4.3558,-4.3556,-4.3554,-4.3465,-4.3465,0,0,0,0,0,0,-4.377,-4.3759,-4.3693,-4.369,-4.3731,-4.369,-4.3684,-4.3669,-4.3629,-4.3623,-4.3651,-4.3651,-4.3592,-4.3586,-4.358,-4.3545,-4.3557,-4.3554,-4.3552,-4.3466,-4.3465,-4.3465,0,0,0,0,0,0,-4.3772,-4.3764,-4.3696,-4.3724,-4.3715,-4.3688,-4.3672,-4.3667,-4.3654,-4.3623,-4.3618,-4.3643,-4.3592,-4.3584,-4.3552,-4.3542,-4.3553,-4.355,-4.3466,-4.3466,-4.3465,-4.3474,0,0,0,0,0,0,-4.3775,-4.3765,-4.3755,-4.3724,-4.3714,-4.367,-4.3671,-4.3666,-4.365,-4.3649,-4.3614,-4.3609,-4.3592,-4.3557,-4.3549,-4.3538,-4.3548,-4.3467,-4.3466,-4.3465,-4.3475,-4.3474,-4.3473,0,0,0,0,0,-4.3778,-4.3757,-4.3754,-4.3746,-4.37,-4.367,-4.3663,-4.3646,-4.3649,-4.3638,-4.3619,-4.361,-4.3546,-4.3554,-4.3545,-4.3533,-4.3467,-4.3466,-4.3465,-4.3475,-4.3474,-4.3473,0,0,0,0,0,0,-4.3783,-4.3753,-4.3749,-4.3718,-4.3697,-4.3667,-4.3652,-4.3646,-4.3621,-4.3621,-4.3599,-4.3591,-4.3561,-4.3544,-4.3554,-4.3505,-4.3506,-4.3503,-4.3517,-4.3516,-4.3515,-4.3519,-4.3545,0,0,0,0,0,-4.3782,-4.3761,-4.3735,-4.371,-4.37,-4.3678,-4.3664,-4.3654,-4.363,-4.362,-4.3598,-4.3573,-4.3548,-4.3531,-4.3505,-4.3473,-4.3466,-4.3461,-4.346,-4.346,-4.3457,-4.3441,-4.3439,-4.3461,-4.3461,-4.3461,0,0,-4.3776,-4.3757,-4.3744,-4.371,-4.3693,-4.3671,-4.367,-4.3646,-4.363,-4.3615,-4.3585,-4.3568,-4.354,-4.3508,-4.3493,-4.3493,-4.345,-4.3458,-4.3458,-4.3455,-4.3439,-4.3437,-4.3436,-4.346,-4.346,-4.346,0,0,-4.3755,-4.3739,-4.3717,-4.3701,-4.3676,-4.3663,-4.3658,-4.363,-4.362,-4.359,-4.3579,-4.3559,-4.3515,-4.3496,-4.348,-4.3458,-4.3449,-4.345,-4.3446,-4.343,-4.3429,-4.3427,-4.342,-4.3417,-4.3448,-4.3448,-4.3448,0,-4.375,-4.3719,-4.3706,-4.3685,-4.367,-4.3661,-4.3639,-4.3623,-4.359,-4.358,-4.3581,-4.3529,-4.3508,-4.3474,-4.3469,-4.3457,-4.345,-4.3453,-4.343,-4.3429,-4.3427,-4.342,-4.3417,-4.3448,-4.3448,-4.3448,-4.3448,0,-4.3715,-4.3694,-4.3679,-4.3652,-4.3636,-4.3614,-4.3598,-4.3583,-4.3576,-4.3562,-4.3533,-4.351,-4.3481,-4.3472,-4.3462,-4.3437,-4.3438,-4.3435,-4.3436,-4.3425,-4.3418,-4.3415,-4.3449,-4.3449,-4.3448,-4.3448,0,0,-4.3691,-4.3662,-4.3656,-4.3645,-4.362,-4.3602,-4.3581,-4.3556,-4.3544,-4.3523,-4.3504,-4.347,-4.3469,-4.3452,-4.3441,-4.3427,-4.3413,-4.3426,-4.3426,-4.3425,-4.3385,-4.3387,-4.3384,-4.3409,-4.3408,-4.3408,-4.3388,0,-4.3667,-4.363,-4.3621,-4.3589,-4.357,-4.3563,-4.3545,-4.3527,-4.3515,-4.3496,-4.3481,-4.3458,-4.3458,-4.3448,-4.3435,-4.3418,-4.3405,-4.3419,-4.339,-4.3389,-4.3396,-4.338,-4.338,-4.3362,-4.3385,-4.3384,-4.3384,0,-4.3632,-4.3615,-4.3583,-4.3563,-4.3555,-4.3538,-4.3517,-4.3499,-4.3479,-4.3471,-4.3455,-4.3447,-4.3424,-4.3429,-4.3397,-4.3407,-4.3395,-4.3386,-4.3385,-4.3379,-4.3384,-4.3374,-4.3356,-4.3353,-4.3379,-4.3379,-4.338,0,-4.3619,-4.3587,-4.3564,-4.3555,-4.3531,-4.352,-4.351,-4.3491,-4.3478,-4.3459,-4.345,-4.3428,-4.3415,-4.3397,-4.3383,-4.3388,-4.3353,-4.3356,-4.3346,-4.3346,-4.3336,-4.3337,-4.3316,-4.3331,-4.3331,-4.3331,-4.3331,0,-4.3592,-4.3572,-4.3559,-4.3544,-4.3523,-4.3512,-4.3491,-4.348,-4.3464,-4.3447,-4.344,-4.3423,-4.3406,-4.3388,-4.3377,-4.3353,-4.3347,-4.334,-4.3337,-4.334,-4.3341,-4.333,-4.3331,-4.333,-4.333,-4.333,-4.333,0,-4.3571,-4.3561,-4.3537,-4.3519,-4.3514,-4.3499,-4.3482,-4.3468,-4.3458,-4.3437,-4.3432,-4.3415,-4.3394,-4.3379,-4.335,-4.3343,-4.3318,-4.3315,-4.3325,-4.3323,-4.3314,-4.3315,-4.3284,-4.3279,-4.3298,-4.3298,-4.3298,0,-4.3554,-4.3539,-4.3521,-4.3511,-4.3502,-4.3485,-4.3473,-4.3463,-4.3451,-4.343,-4.3419,-4.3398,-4.3381,-4.3347,-4.3331,-4.3311,-4.3307,-4.3298,-4.3303,-4.3308,-4.3307,-4.3307,-4.3306,-4.3296,-4.3296,-4.3296,-4.3296,0,-4.3524,-4.3522,-4.3506,-4.349,-4.3477,-4.3463,-4.3449,-4.3441,-4.3429,-4.3415,-4.3396,-4.3383,-4.3357,-4.3336,-4.3315,-4.3302,-4.3297,-4.3295,-4.3291,-4.3293,-4.33,-4.3297,-4.3322,-4.3295,-4.3295,-4.3295,-4.3295,-4.3295,-4.3504,-4.3493,-4.3479,-4.3463,-4.3453,-4.3441,-4.3428,-4.3419,-4.3403,-4.3383,-4.3378,-4.3358,-4.3341,-4.3313,-4.3301,-4.3284,-4.3285,-4.3279,-4.3278,-4.3276,-4.3277,-4.3305,-4.328,-4.328,-4.328,-4.328,-4.328,0,-4.3475,-4.3467,-4.3453,-4.3436,-4.3424,-4.3424,-4.341,-4.3399,-4.3382,-4.3368,-4.3353,-4.3332,-4.3314,-4.3299,-4.328,-4.3269,-4.3267,-4.3265,-4.3264,-4.3262,-4.3277,-4.3282,-4.3267,-4.3267,-4.3267,-4.3267,-4.3267,-4.3267,-4.3457,-4.3438,-4.3435,-4.341,-4.3403,-4.3385,-4.3377,-4.3366,-4.3356,-4.3334,-4.332,-4.3312,-4.3298,-4.3279,-4.3262,-4.3258,-4.3251,-4.325,-4.3245,-4.3259,-4.326,-4.3262,-4.3266,-4.3249,-4.3249,-4.3231,-4.3231,-4.3231]}]]